Location: Bernay
(48.6766°N, 2.9386°E)
Time: 07:47:19
(UTC+00:00)

Cosmos 1805 Rocket - Pass Details

Date: 12 January 2026
Orbit: 598 x 623 km, 82.5° (Epoch: 14 February)

Event Time Altitude Azimuth Distance (km) Brightness Sun altitude
Rises 17:00:18 0° 346° (NNW) 2,895 6.9 -7.3°
Reaches altitude 10° 17:02:35 10° 342° (NNW) 1,981 6.1 -7.6°
Maximum altitude 17:06:51 54° 265° (W) 747 4.4 -8.3°
Drops below altitude 10° 17:11:03 10° 189° (S) 1,949 6.6 -8.9°
Sets 17:13:16 0° 185° (S) 2,844 7.3 -9.2°
